[[{"header":{"parameterUnit":"m.s-1","parameterCategory":1,"la1":30.2992,"la2":30.254,"lo1":-89.0895,"lo2":-89.0443,"dy":0.0025,"dx":0.0025,"nx":19,"ny":19,"refTime":"2026-03-17T21:00:00:Z","depth":0,"parameterNumber":2,"parameterNumberName":"U-component_of_WINDS"},"data":[0,0,0,-1.5325,-1.5327,-1.5427,-1.5427,-1.5556,-1.5558,0,0,0,0,0,0,0,0,0,0,0,-1.5298,-1.5298,-1.5325,-1.5328,-1.5427,-1.5427,-1.5556,-1.5558,0,0,0,0,0,0,0,0,0,0,0,-1.5297,-1.5298,-1.5299,-1.5328,-1.5427,-1.5427,-1.5556,-1.548,0,0,0,0,0,0,0,0,0,0,-1.5383,-1.536,-1.5298,-1.5299,-1.5329,-1.5427,-1.5427,-1.5476,-1.5485,-1.5512,0,-1.5538,0,-1.555,-1.5566,-1.5567,0,0,0,-1.5326,-1.5353,-1.5378,-1.53,-1.5329,-1.5426,-1.5382,-1.5481,-1.5491,-1.5524,-1.554,-1.5544,-1.5552,-1.5567,-1.5568,-1.5731,-1.5732,0,0,-1.5321,-1.5317,-1.5371,-1.5384,-1.5369,-1.5378,-1.5385,-1.5487,-1.5504,-1.554,-1.5547,-1.5554,-1.5568,-1.5569,-1.573,-1.5731,0,0,0,-1.5306,-1.5313,-1.5335,-1.5379,-1.5396,-1.5381,-1.5389,-1.5499,-1.5507,-1.5549,-1.5555,-1.5569,-1.557,-1.5729,-1.573,-1.5766,0,0,0,-1.5303,-1.5304,-1.5333,-1.5331,-1.5395,-1.5449,-1.5399,-1.55,-1.5512,-1.5555,-1.5569,-1.5572,-1.5728,-1.573,-1.5763,-1.5784,0,0,0,-1.529,-1.5303,-1.5318,-1.5331,-1.5373,-1.5448,-1.5461,-1.5503,-1.5516,-1.5567,-1.5572,-1.5728,-1.573,-1.5761,-1.578,-1.5825,0,0,0,-1.5276,-1.5349,-1.5318,-1.5401,-1.5372,-1.5469,-1.5461,-1.5533,-1.5581,-1.557,-1.5728,-1.573,-1.576,-1.5777,-1.5822,-1.5863,-1.5879,0,0,-1.5365,-1.536,-1.5409,-1.5384,-1.5485,-1.5454,-1.5561,-1.5609,-1.5618,-1.5693,-1.5697,-1.5764,-1.578,-1.5825,-1.5972,-1.5985,0,0,0,-1.5435,-1.5471,-1.5498,-1.5544,-1.5582,-1.5616,-1.5648,-1.5666,-1.5729,-1.5656,-1.5793,-1.5803,-1.5829,-1.5848,-1.5859,-1.5882,-1.5739,-1.5739,-1.5739,-1.5556,-1.5562,-1.5644,-1.5662,-1.5706,-1.5738,-1.5774,-1.5803,-1.5798,-1.583,-1.5853,-1.5941,-1.5964,-1.5972,-1.5995,-1.5874,-1.5875,-1.5875,-1.5875,-1.5686,-1.5737,-1.5727,-1.5803,-1.5809,-1.5872,-1.5905,-1.5899,-1.5959,-1.5925,-1.5949,-1.5912,-1.5986,-1.6007,-1.5878,-1.5877,-1.5877,-1.5876,-1.5876,-1.5766,-1.5791,-1.5811,-1.5876,-1.5925,-1.5941,-1.5998,-1.6002,-1.6006,-1.603,-1.6053,-1.6052,-1.6052,-1.604,-1.6041,-1.6041,-1.6041,-1.6042,-1.6042,-1.5841,-1.5861,-1.5909,-1.5955,-1.5983,-1.6021,-1.6053,-1.6081,-1.6113,-1.6112,-1.6112,-1.6103,-1.5992,-1.5964,-1.6047,-1.6046,-1.6045,-1.6045,-1.6044,-1.5971,-1.5941,-1.6015,-1.6044,-1.6096,-1.6144,-1.6148,-1.6205,-1.6229,-1.6257,-1.6242,-1.6159,-1.6154,-1.6145,-1.6122,-1.6241,-1.6241,-1.6241,-1.6241,-1.6038,-1.6035,-1.611,-1.6155,-1.62,-1.621,-1.6293,-1.6317,-1.6338,-1.6353,-1.6336,-1.6305,-1.6296,-1.6296,-1.6284,-1.6262,-1.6414,-1.6415,-1.6415,-1.6118,-1.6119,-1.6189,-1.6208,-1.6249,-1.6284,-1.6361,-1.6413,-1.643,-1.6422,-1.6364,-1.6357,-1.6308,-1.6291,-1.6282,-1.6264,-1.6224,0,0]},{"header":{"parameterUnit":"m.s-1","parameterCategory":1,"la1":30.2992,"la2":30.254,"lo1":-89.0895,"lo2":-89.0443,"dy":0.0025,"dx":0.0025,"nx":19,"ny":19,"refTime":"2026-03-17T21:00:00:Z","depth":0,"parameterNumber":3,"parameterNumberName":"V-component_of_WINDS"},"data":[0,0,0,-3.8133,-3.8136,-3.8273,-3.8273,-3.8456,-3.8458,0,0,0,0,0,0,0,0,0,0,0,-3.81,-3.8102,-3.8133,-3.8137,-3.8273,-3.8273,-3.8456,-3.8458,0,0,0,0,0,0,0,0,0,0,0,-3.81,-3.8101,-3.8103,-3.8137,-3.8273,-3.8273,-3.8455,-3.8349,0,0,0,0,0,0,0,0,0,0,-3.8215,-3.8193,-3.8101,-3.8103,-3.8138,-3.8273,-3.8273,-3.8344,-3.8356,-3.8399,0,-3.8441,0,-3.8453,-3.8471,-3.8472,0,0,0,-3.8131,-3.8183,-3.8213,-3.8104,-3.8139,-3.8272,-3.821,-3.835,-3.8364,-3.8415,-3.8444,-3.845,-3.8456,-3.8472,-3.8473,-3.8745,-3.8746,0,0,-3.8123,-3.8129,-3.8203,-3.8222,-3.8204,-3.8205,-3.8214,-3.8358,-3.8389,-3.8444,-3.8454,-3.8459,-3.8473,-3.8475,-3.8743,-3.8745,0,0,0,-3.8105,-3.8124,-3.815,-3.8215,-3.8239,-3.8209,-3.8219,-3.8383,-3.8391,-3.8456,-3.8461,-3.8475,-3.8477,-3.8742,-3.8744,-3.8826,0,0,0,-3.8101,-3.8113,-3.8147,-3.8152,-3.8236,-3.8313,-3.8241,-3.8381,-3.8397,-3.846,-3.8475,-3.8479,-3.874,-3.8743,-3.882,-3.8863,0,0,0,-3.8089,-3.8112,-3.8134,-3.8152,-3.8211,-3.8311,-3.8327,-3.8384,-3.8401,-3.8472,-3.8479,-3.8739,-3.8742,-3.8814,-3.8854,-3.8935,0,0,0,-3.8077,-3.8205,-3.8136,-3.828,-3.821,-3.8361,-3.8326,-3.8438,-3.8509,-3.8476,-3.874,-3.8744,-3.8813,-3.8849,-3.8929,-3.9003,-3.9035,0,0,-3.8242,-3.8225,-3.831,-3.8251,-3.8416,-3.834,-3.8516,-3.8575,-3.8576,-3.8688,-3.8695,-3.8822,-3.8854,-3.8934,-3.9212,-3.9237,0,0,0,-3.8363,-3.8424,-3.8466,-3.8535,-3.8584,-3.8628,-3.866,-3.8681,-3.8776,-3.8636,-3.8873,-3.8892,-3.8938,-3.8973,-3.8995,-3.9033,-3.8761,-3.876,-3.876,-3.8603,-3.8598,-3.8737,-3.8748,-3.8814,-3.8845,-3.8897,-3.8931,-3.8907,-3.8962,-3.8995,-3.9165,-3.9206,-3.9222,-3.9263,-3.9035,-3.9035,-3.9035,-3.9036,-3.8842,-3.8926,-3.889,-3.9012,-3.9004,-3.9105,-3.9139,-3.9118,-3.9209,-3.914,-3.9181,-3.9105,-3.925,-3.9285,-3.9042,-3.9041,-3.904,-3.9039,-3.9039,-3.8998,-3.9037,-3.9062,-3.9158,-3.9232,-3.9238,-3.9328,-3.9318,-3.931,-3.935,-3.9382,-3.9381,-3.9377,-3.9366,-3.9367,-3.9367,-3.9368,-3.9368,-3.9369,-3.9149,-3.9174,-3.9252,-3.9313,-3.9354,-3.9407,-3.9438,-3.9477,-3.9519,-3.9504,-3.9504,-3.9473,-3.9266,-3.9213,-3.9378,-3.9376,-3.9375,-3.9374,-3.9374,-3.9392,-3.9335,-3.9455,-3.9496,-3.9565,-3.9639,-3.9625,-3.9706,-3.9738,-3.9781,-3.9741,-3.959,-3.9572,-3.9555,-3.9511,-3.9743,-3.9743,-3.9743,-3.9743,-3.9522,-3.9512,-3.9631,-3.9697,-3.9761,-3.976,-3.9892,-3.9917,-3.9933,-3.9951,-3.9916,-3.9857,-3.984,-3.9833,-3.9809,-3.9768,-4.006,-4.0061,-4.0061,-3.967,-3.9665,-3.9781,-3.9797,-3.985,-3.9895,-4.0018,-4.0094,-4.01,-4.0074,-3.9965,-3.9951,-3.9856,-3.9826,-3.9797,-3.9761,-3.9686,0,0]}]]